C/2010 U3 ( Boattini )

Japanese version
Home page
Updated on February 7, 2017

---------------------------------------------------------------------

* Profile

Discovery Date October 31, 2010
Magnitude 19.4 mag
Discoverer A. Boattini (Mt. Lemmon)

* Pictures

* Orbital Elements

Epoch 2019 Mar. 18.0 TT = JDT 2458560.5
T 2019 Feb. 26.64686 TT                                 MPCW
q   8.4455925            (2000.0)            P               Q
z  +0.0002000      Peri.   88.08648     -0.36204852     -0.74305605
 +/-0.0000011      Node    43.06727     +0.07255639     -0.62443408
e   0.9983110      Incl.   55.51182     +0.92933118     -0.24072760
From 465 observations 2009 Sept. 16-2016 Apr. 3, mean residual 0".6.

* Finding Charts

* Magnitudes Graph

        m1 = 7.5 + 5 log d + 5.0 log r

---------------------------------------------------------------------

The orbital elements are published on M.P.E.C. 2016-H35.
The charts are made with StellaNavigator Ver.8 (AstroArts).
The magnitudes graphs are made with Comet for Windows.

---------------------------------------------------------------------

Copyright(C) Seiichi Yoshida (comet@aerith.net). All rights reserved.